Regional Weather Roundup
Issued by NWS Upton, NY

Current Version | Previous Version | Graphics & Text | Print | Product List | Glossary Off
Versions: 1 2 3 4 5 6 7 8 9 10 11 12 13 14 15 16 17 18 19 20 21 22 23 24 25 26 27 28 29 30 31 32 33 34 35 36 37 38 39 40 41 42 43 44 45 46 47 48 49 50

000
ASUS41 KOKX 301205
RWROKX

REGIONAL WEATHER ROUNDUP
NATIONAL WEATHER SERVICE NEW YORK NY
700 AM EST FRI JAN 30 2015

NOTE: "FAIR" INDICATES FEW OR NO CLOUDS BELOW 12,000 FEET WITH NO
SIGNIFICANT WEATHER AND/OR OBSTRUCTIONS TO VISIBILITY.

NYZ071-072-176-178-NJZ106-104-301300-
NEW YORK CITY METRO AREA


CITY           SKY/WX    TMP DP  RH WIND       PRES   REMARKS
CENTRAL PARK   CLOUDY    33  26  75 W7        29.85F WCI  27
LAGUARDIA APRT FLURRIES  33  25  72 NW12      29.84S WCI  24
KENNEDY INTL   FLURRIES  36  26  67 W13       29.87R WCI  27
NEWARK/LIBERTY CLOUDY    32  27  81 W7        29.85S WCI  26
BRNX BOT. GARD   N/A    N/A N/A N/A W14       29.86R
TETERBORO      FLURRIES  31  28  89 NW5       29.84F WCI  26
$$

NYZ177-179-078>081-301300-
LONG ISLAND NEW YORK

CITY           SKY/WX    TMP DP  RH WIND       PRES   REMARKS
FARMINGDALE    CLOUDY    35  28  75 W8        29.84F WCI  29
ISLIP          FLURRIES  34  30  85 CALM      29.82F
SHIRLEY        CLOUDY    34  31  88 SW3       29.84F
WESTHAMPTON    MIX PCPN  34  31  88 W3        29.85F
MONTAUK POINT    N/A     34  32  92 CALM      29.85F
$$

NYZ052-065-067-301300-
HUDSON VALLEY

CITY           SKY/WX    TMP DP  RH WIND       PRES   REMARKS
WHITE PLAINS   CLOUDY    30  28  92 NW7       29.81F WCI  23
NEWBURGH       CLOUDY    27  25  93 W9        29.83F FOG     WCI  17
MONTGOMERY     LGT SNOW  26  24  92 SW5       29.83R FOG     WCI  20
POUGHKEEPSIE   CLOUDY    30  26  85 SW3       29.84S
ALBANY         LGT SNOW  28  24  85 S8        29.84S FOG     WCI  20
$$

NJZ001-105-106-008-010-013-015-019>022-104-301300-
NEW JERSEY

CITY           SKY/WX    TMP DP  RH WIND       PRES   REMARKS
NEWARK/LIBERTY CLOUDY    32  27  81 W7        29.85S WCI  26
TETERBORO      FLURRIES  31  28  89 NW5       29.84F WCI  26
CALDWELL       CLOUDY    29  27  92 CALM      29.85S FOG
MORRISTOWN     FLURRIES  28  27  93 CALM      29.85S
SOMERVILLE     CLOUDY    30  25  81 CALM      29.84S
SUSSEX         LGT SNOW  26  24  92 CALM      29.84S FOG
ANDOVER          N/A     26  24  92 CALM      29.84S
TRENTON        LGT SNOW  30  24  78 NW8       29.85S WCI  22
MILLVILLE      CLOUDY    36  26  67 NW14G20   29.89R WCI  27
ATLANTIC CITY  FLURRIES  34  28  79 NW8       29.88R WCI  27
WRIGHTSTOWN    FLURRIES  32  25  74 NW7       29.85R WCI  26
TOMS RIVER     CLOUDY    34  27  75 W8        29.87R WCI  27
BELMAR         CLOUDY    34  21  60 W10       29.85S WCI  26
$$

PAZ047>061-062-071-301300-
EASTERN PENNSYLVANIA

CITY           SKY/WX    TMP DP  RH WIND       PRES   REMARKS
PHILADELPHIA   FLURRIES  35  25  66 NW13      29.90R WCI  26
ALLENTOWN      CLOUDY    28  24  85 W8        29.87S WCI  20
SCRANTON       LGT SNOW  27  24  89 SW3       29.84S VSB 1
$$

CTZ002-004>006-009-010-012-RIZ004-006-007-MAZ004-011-015-301300-
SOUTHERN NEW ENGLAND
 IN CT

CITY           SKY/WX    TMP DP  RH WIND       PRES   REMARKS
BRADLEY INTL   FLURRIES  30  28  92 S5        29.82F WCI  25
HARTFORD       CLOUDY    32  28  85 CALM      29.84F
DANBURY        LGT SNOW  30  26  85 W3        29.83S FOG
WTRBRY/OXFORD  LGT SNOW  30  23  74 CALM      29.81F FOG
BRIDGEPORT     LGT SNOW  32  32 100 CALM      29.84F FOG
MERIDEN        MIX PCPN  30  29  96 CALM      29.83F FOG
NEW HAVEN      LGT SNOW  32  30  92 CALM      29.83F FOG
CHESTER        PTSUNNY   32  32 100 W3        29.82F
GROTON         MIX PCPN  33  32  96 CALM      29.84F
WILLIMANTIC    CLOUDY    29  27  92 CALM      29.84F FOG

 IN RI

CITY           SKY/WX    TMP DP  RH WIND       PRES   REMARKS
PROVIDENCE     CLOUDY    32  30  92 NE5       29.84F WCI  27
BLOCK ISLAND   CLOUDY    36  30  80 SW5       29.83F WCI  32
WESTERLY       LGT SNOW  34  32  92 CALM      29.85S FOG

 IN MA

CITY           SKY/WX    TMP DP  RH WIND       PRES   REMARKS
BOSTON         CLOUDY    32  28  85 S8        29.85F WCI  25
WORCESTER      CLOUDY    27  27 100 S3        29.79F FOG
WESTFIELD      CLOUDY    28  25  88 CALM      29.82F FOG
PROVINCETOWN   CLOUDY    36  30  80 SE12      29.86F WCI  27
NANTUCKET      CLOUDY    38  33  82 SE16      29.85F WCI  29
$$

ANZ330-335-338-340-345-350-353-355-301300-
COASTAL MARINE OBSERVATIONS


STATION/POSITION TIME  SKY/WX   TEMP    WIND        PRES    VSBY  WAVE
                                AIR SEA DIR/SP/G                  HT/PER
                 (UTC)          (F)     (DEG/KT/KT) (MB)    (MI)  (FT/S)
NY HARB ENTRANCE 1200            36 39  270/ 12/ 16 1010.6          3/ 6
4S FIRE IS       1200               37                N/A           4/ 5
20S FIRE ISLAND  1100               42              1010.9          4/ 5
23SW MTP         1200                                 N/A           4/ 5
HUDSON CANYON    NOT AVBL
EXECUTION ROCKS  1200            33 33  280/  8/ 10   N/A
WESTERN LI SOUND 1200            33     310/  4/  6   N/A           0
CENTRAL LI SOUND 1100            33 35  330/  4/  6   N/A           0
EASTERN LI SOUND NOT AVBL
ROBBINS REEF     1100            33     300/ 10/ 13 1009.4
$$


>>>>>>>>>>>>>>>>>>>>>>>>>>>> KEY <<<<<<<<<<<<<<<<<<<<<<<<<<<
>                                                          <
>     SKY/WX - SKY CONDITION/PRESENT WEATHER               <
>     TMP    - TEMPERATURE IN FAHRENHEIT                   <
>     DP     - DEWPOINT IN FAHRENHEIT                      <
>     RH     - RELATIVE HUMIDITY IN PERCENT                <
>     WIND   - DIRECTION AND SPEED IN MPH                  <
>     PRES   - MEAN SEA LEVEL PRESSURE IN INCHES OF HG     <
>     WCI    - WIND CHILL INDEX                            <
>     VSB    - VISIBILITY IN MILES                         <
>     HX     - HEAT INDEX                                  <
>     TC     - TEMPERATURE IN CELSIUS                      <
>     VRB    - VARIABLE WIND DIRECTION                     <
>                                                          <
>>>>>>>>>>>>>>>>>>>>>>>>>>>> KEY <<<<<<<<<<<<<<<<<<<<<<<<<<<




USA.gov is the U.S. government's official web portal to all federal, state and local government web resources and services.